Погода в Холмогорском

Россия / Красноярский край     55°27′13″N   89°07′22″E
темп.,
°C
ветер,
м/с
пор.,
м/с
влажн.,
%
обл.,
%
осадки,
мм/ч
давл.,
гПа
погр.,
м
9 марта, вт
вт901:00−2зюз41683100 0.0 10091128
04:00−3з7168257 0.3 10121437
07:00−11з5148453 0.4 1019570
10:00−9зюз7147552 0.0 10231016
13:00−8зюз7147252 0.0 10251012
16:00−7зюз6137228 0.0 10261110
19:00−10юз368216 0.0 1025139
22:00−12ю238691 0.0 102535
10 марта, ср
ср1001:00−13ю228593 0.0 102324
04:00−14ю228298 0.0 102224
07:00−11ююз268076 0.0 1021116
10:00−4зюз3128284 0.0 1019937
13:00−1зюз5107891 0.0 1018981
16:00−1з377992 0.0 1018924
19:00−5вюв118792 0.0 101721
22:00−7ююв2386100 0.0 101530
11 марта, чт
чт1101:00−6ююв3386100 0.0 101059
04:00−4ююв4777100 0.0 1006136
07:00+1юз41580100 0.0 1004896
10:00+2юз51786100 0.1 10051351
13:00+1зюз9197199 0.1 10091498
16:00−2зюз61568100 0.0 10121176
19:00−5зюз31378100 0.0 1015717
22:00−7з41578100 0.0 1018911
12 марта, пт
пт1201:00−9зюз3137866 0.0 1020554
04:00−12ююв22820 0.0 102021
07:00−12ююв478015 0.0 1017119
10:00−3юз41480100 0.0 10131490
13:00−3юз61282100 0.4 10141479
16:00−6юз81669100 0.6 10152009
19:00−11зюз4117950 0.6 1016408
22:00−14з398611 0.0 1018310
13 марта, сб
сб1301:00−15з259251 0.0 1019157
04:00−19зсз0195100 0.0 101922
07:00−19юз3108899 0.0 1022486
10:00−17зюз7137617 0.0 10251084
13:00−16з7127527 0.0 10271163
16:00−15з6117798 0.0 10291023
19:00−18зюз4128470 0.0 1031417
22:00−19юз312860 0.0 1034287